Location:  
MeteoStar


Sort by weather type Sort by elevation Sort by visibility Sort from west to east north Sort from north to south Alphabetically Sort from strongest wind speed Sort from lowest to highest pressure Sort from highest to lowest dew point temperature Sort coolest temperatures to warmest Sort warm temperatures to coolest
 Metric

Current Observations for United Kingdom sorted by wind speed

Great Dun Fell13:00ZNot Avail.49 N/A4SW 45 Gusting to 58 2778
Cairngorm13:00ZNot Avail.43 435SW 35 Gusting to 52 324084
Cairnwell13:00ZNot Avail.43 435SSW 26 Gusting to 46 333061
Benbecula12:50ZLight Rain57 573991.1SSW 26 5719
Capel Curig13:00ZClear56 542.251006.4SW 25 Gusting to 33 56708
Drumalbin13:00ZNot Avail.56 51251000.7SW 25 Gusting to 36 56803
Aultbea13:00ZLight Rain56 536992.5S 25 Gusting to 38 5636
Stornoway12:50ZRain57 551.87990.1SSW 25 5729
Tiree12:50ZLight Rain57 551.37995.1SSW 24 5739
Kirkwall Airport12:50ZLight Rain54 5214992.1S 24 4868
Inverbervie13:00ZNot Avail.58 5020998.2SW 23 Gusting to 30 58439
Fair Isle13:00ZLight Rain53 515993.5S 23 Gusting to 32 47187
Dundee / Riverside12:50ZPartly Cloudy61 543999.1WSW 23 6113
Blackpool Airport12:50ZMostly Cloudy61 5561006.1W 22 6132
Aberdaron13:00ZNot Avail.58 56131007.5SSW 21 Gusting to 26 58311
Kinloss12:50ZNot Avail.59 4820994.1SSW 21 Gusting to 34 5922
Valley12:50ZLight Drizzle59 5741006.1SSW 21 593
Eglinton / Londonderr12:50ZMostly Cloudy61 5425998.1SW 21 Gusting to 33 6129
Glasgow Airport12:50ZMostly Cloudy57 48251001.1SSW 20 5726
Saint Helena Island12:50ZCloudy60 572.51020.0ESE 19 Gusting to 26 601427
Fylingdales13:00ZNot Avail.67 5612SSW 19 Gusting to 27 67859
Shap13:00ZNot Avail.55 5441005SW 19 Gusting to 32 55816
Charterhall13:00ZNot Avail.60 56201000.5SW 19 Gusting to 34 60367
Lossiemouth12:50ZClear61 5045994.1SSW 19 6142
Loftus Samos13:00ZNot Avail.70 57121003.5SSW 18 70190
Dundrennan13:00ZClear55 53251003.2SW 18 Gusting to 29 55374
Glen Ogle13:00ZNot Avail.47 4620S 18 Gusting to 31 401850
Prestwick Rnas13:00ZNot Avail.60 48401001.5SW 18 Gusting to 25 6085
Baltasound13:00ZLight Rain53 523992.5S 18 Gusting to 26 4849
Cranwell12:50ZNot Avail.75 54201006.1SSW 18 75219
Leeming12:50ZMostly Cloudy68 57121004.1SW 18 68131
Boulmer12:50ZMostly Cloudy63 55121002.1S 18 6375
Tees-Side12:50ZClear68 5561004.1SW 18 Gusting to 28 68121
Belfast / Harbour12:50ZCloudy61 50251001.1SSW 18 6116
Little Rissington13:00ZNot Avail.69 58121007.4SSW 17 69705
Spadeadam13:00ZLight Drizzle56 5551002.7WSW 17 Gusting to 26 56935
Saint Bees Head13:00ZNot Avail.55 5351004.9SW 17 Gusting to 25 55406
Eskdalemuir13:00ZLight Drizzle54 5421002.7SSW 17 Gusting to 27 49793
Peterhead Harbour13:00ZNot Avail.N/A N/A20SSW 17 Gusting to 29 49
Loch Glascanoch13:00ZRain55 524994SW 17 Gusting to 42 55869
Holbeach12:50ZNot Avail.77 55201007.1WSW 17 779
Waddington12:50ZNot Avail.75 54151006.1SSW 17 75223
Leuchars12:50ZPartly Cloudy59 5220999.1SW 17 5939
Inverness / Dalcross12:50ZClear59 5025994.1SSW 17 5929
Spadeadam12:50ZLight Rain55 5551002.1WSW 17 551066
Humberside12:50ZNot Avail.75 5961006.1SSW 17 75101
Lerwick13:00ZLight Rain53 525992.7SSW 16 Gusting to 25 48269
Sumburgh Cape 12:50ZMostly Cloudy54 5214993.1SSW 16 5016
Castlederg13:00ZHaze58 553999.5SSW 15 Gusting to 28 58167
Lake Vyrnwy13:00ZNot Avail.57 5441006.7SW 15 571181
Crosby13:00ZNot Avail.62 5771006.5W 15 6226
Altnaharra13:00ZClear58 5215992.4S 15 Gusting to 30 58265
Topcliffe Royal Air Force Base 12:50ZMostly Cloudy70 59151005.1SW 15 7091
Leconfield12:50ZClear73 57201004.1SW 15 7319
Linton-On-Ouse12:50ZMostly Cloudy72 57201004.1SW 15 7252
Prestwick Airport12:50ZMostly Cloudy61 48251002.1SW 15 6165
Wick12:50ZLight Rain55 5214993.1SSW 15 55127
Walney Island13:00ZNot Avail.60 55101005.5SW 15 Gusting to 27 6049
Boscombe Down12:50ZMostly Cloudy66 57121009.1SW 15 66406
Ballypatrick Forest13:00ZNot Avail.58 5125999.5SW 14 Gusting to 34 58511
Bedford13:00ZNot Avail.75 49251007.2S 14 75278
Aboyne13:00ZNot Avail.59 4730996.7SW 14 59459
Cranfield12:50ZNot Avail.73 46451008.0SSW 14 73364
Machrihanish13:00ZNot Avail.60 5120999.9S 14 Gusting to 27 6042
Tain Range13:00ZNot Avail.59 5030994.2SW 14 5913
Edinburgh Airport12:50ZCloudy61 54251000.1SW 14 61134
West Freugh13:00ZNot Avail.58 53131002.7S 14 5836
Newcastle 12:50ZMostly Cloudy64 54151003.1SW 14 64265
Isle Of Man / Ronaldsway Airport12:50ZCloudy59 54151004.1SSW 14 5955
Lydd Airport 12:50ZNot Avail.70 57201010.1SW 14 709
Farnborough12:50ZClear73 5741009.1SSW 14 73213
Portglenone13:00ZNot Avail.58 52181000.4S 13 Gusting to 28 58209
Mumbles13:00ZNot Avail.65 59201009.2SSW 13 65114
Weybourne13:00ZNot Avail.77 57251006.9SW 13 7768
Donna Nook13:00ZNot Avail.76 58121005.7SSW 13 7626
Bridlington Mrsc13:00ZNot Avail.75 58121004.2SW 13 Gusting to 23 7549
Redesdale13:00ZNot Avail.57 5581002.4SSW 13 Gusting to 23 57692
Warcop Range13:00ZMist56 5541005.2SW 13 Gusting to 27 56744
Strathallan13:00ZNot Avail.59 4920999.5WSW 13 59114
Fairford Royal Air Force Base12:46ZMostly Cloudy70 59121007.9SW 13 70285
East Midlands12:50ZNot Avail.73 4561006.1S 13 73308
Leeds And Bradford12:50ZPartly Cloudy66 55101006.1SW 13 66682
Belfast / Aldergrove Airport12:50ZMostly Cloudy59 52251001.1SW 13 59265
Isle Of Portland13:00ZNot Avail.63 60151009.7SW 12 63173
Pershore13:00ZNot Avail.70 53201007.9SSW 12 70104
Bingley13:00ZNot Avail.65 5771005.2SW 12 65859
Wainfleet13:00ZNot Avail.74 5981006.5S 12 749
Marham12:50ZNot Avail.75 57121007.1SSW 12 7575
Wittering12:50ZNot Avail.75 54141006.1SW 12 75275
Coningsby Royal Air Force Base12:50ZNot Avail.77 55201006.1SW 12 7722
Biggin Hill 12:50ZNot Avail.72 5021008.9SSW 12 72600
Bristol / Lulsgate 12:50ZCloudy63 5771009.0S 12 63620
Glenanne13:00ZNot Avail.58 51251001.5SW 11 58528
Saint Catherines Point13:00ZNot Avail.63 60151010WSW 11 6352
Camborne13:00ZCloudy64 57151009.4SSW 11 64285
Nottingham Weather Centre13:00ZNot Avail.74 53251006.0SW 11 74383
Northolt12:50ZNot Avail.75 45201008.1SW 11 75124
Middle Wallop12:50ZPartly Cloudy68 59121009.1SSW 11 68298
Odiham12:50ZClear72 5991009.0SSW 11 72403
Aberporth13:00ZNot Avail.58 5691008SW 11 58436
Benson12:50ZClear73 57121008.1S 11 73206
Cambridge12:50ZNot Avail.77 54451007.1SW 11 7749
Aberdeen / Dyce12:50ZMostly Cloudy59 4825997.1S 11 59213
Pembrey Sands12:50ZMostly Cloudy63 57101008.1SSW 11 639
Shoreham Airport12:50ZHaze64 6121010.1SW 11 646
Guernsey Airport12:50ZMostly Cloudy63 6151011.1SW 11 63334
Bournemouth Airport12:50ZMostly Cloudy66 59171009.1SW 11 6636
Kenley13:00ZNot Avail.73 52201008.5SSW 10 73557
Tulloch Bridge13:00ZDrizzle53 512.75997.9WSW 10 Gusting to 24 50777
Brize Norton12:50ZPartly Cloudy73 55151008.1SW 10 73288
Stansted Airport12:50ZClear75 54451008.1SW 10 75347
Shawbury12:50ZClear70 55121006.1SW 10 70249
Southend-On-Sea 12:50ZNot Avail.75 54201008.1SSW 10 7549
London / Heathrow Airport12:50ZClear75 45201009.1SW 10 7578
Alderney / Channel Island12:50ZMostly Cloudy64 6161010.1SSW 10 64232
Southampton / Weather Centre12:50ZPartly Cloudy68 5961009.1SSW 10 6829
Luton Airport 12:50ZClear73 5071008.0SSW 10 73524
Langdon Bay13:00ZNot Avail.67 58201009.7SSW 9 67383
Larkhill13:00ZNot Avail.66 58201009SW 9 66433
Shoeburyness13:00ZNot Avail.74 55201008.5SW 9 746
Sennybridge13:00ZHaze59 5571008WSW 9 591007
Aviemore13:00ZHaze54 495996SSW 9 Gusting to 19 51721
Wattisham12:50ZNot Avail.75 57121008.1SW 9 75285
Mildenhall Royal Air Force Base12:55ZClear77 54121007.0WSW 9 7732
Norwich Weather Centre12:50ZNot Avail.77 55451007.1SW 9 7745
London / Gatwick Airport12:50ZNot Avail.75 5021009.1SW 9 75203
Jersey Airport12:50ZPartly Cloudy66 61151011.1SW 9 66275
Liverpool Airport 12:50ZMostly Cloudy64 5971006.1W 9 6485
Lyneham13:00ZNot Avail.65 57121008.5SSW 9 65475
Manchester Airport12:50ZMostly Cloudy70 57251006.1SSW 9 70226
Staverton Private 12:50ZMostly Cloudy68 57251008.1SSW 9 6895
Dunkeswell Aerodrome13:00ZNot Avail.61 5871009.0SSW 8 61826
High Wicombe Hqstc13:00ZNot Avail.71 57141008SW 8 71669
Shobdon13:00ZNot Avail.68 5881007WSW 8 68324
Manston13:00ZNot Avail.76 56121008.9SW 8 76180
Lakenheath Royal Air Force Base12:56ZClear77 5791007.6SSW 8 7732
Exeter Airport12:50ZMostly Cloudy64 59451009.1SSW 8 6498
London City Airport12:50ZClear77 5221008.1SW 8 7716
Cardiff-Wales Airport12:50ZCloudy61 5771009.1W 8 61219
Yeovilton12:50ZMostly Cloudy63 5971009.1SW 8 6375
Plymouth13:00ZClear62 6071009.5SSW 8 62164
Birmingham / Airport12:50ZNot Avail.72 46251007.1S 8 72324
Thorney Island13:00ZHaze65 5951010SW 7 6513
Milford Haven13:00ZNot Avail.60 56201008.2WSW 7 60144
Church Lawford13:00ZNot Avail.74 43201006.7SSW 7 74351
Hawarden12:50ZMostly Cloudy66 57131007.1W 7 6632
Culdrose12:50ZHaze61 592.751009.1SW 7 61255
Herstmonceux13:00ZNot Avail.72 52251009.5W 6 72170
Cardinham13:00ZNot Avail.61 58151009SW 6 61656
Liscombe13:00ZNot Avail.56 560.871009.0SW 6 561141
Trawscoed13:00ZNot Avail.62 5631007.7SSW 6 62206
Keswick13:00ZRain/Drizzle59 5471004.4SW 6 59265
Rhyl13:00ZNot Avail.60 56201006.7SW 5 60252

Atlantic
Tropical Watch